When you browse on this site, cookies collect data to enhance your experience and personalize the content and advertising you see.
Visit our Privacy Policy to learn more. By continuing to use the site, you agree to this use of cookies and data.
  • In Deutschland
  • Länderverzeichnis
  • Für 7 Tage
  • Wassertemperatur
  • Wetterkarte
  • Widgets
  • user-avatar
    Anmelden

    Stündliche Wetter Barra

    Heute, 25 August, Sonntag

    Zeit Temperatur Niederschläge Wind Luftdruck Luftfeuchtigkeit
    00:00 +19°C° 0.4 mm 3 m/S 752 mmHg 93%
    01:00 +19°C° 0.4 mm 3 m/S 751 mmHg 92%
    02:00 +19°C° 0.4 mm 3 m/S 751 mmHg 92%
    03:00 +19°C° 0.4 mm 3 m/S 751 mmHg 92%
    04:00 +19°C° 0 mm 3 m/S 751 mmHg 92%
    05:00 +19°C° 0.3 mm 3 m/S 751 mmHg 92%
    06:00 +19°C° 0.3 mm 3 m/S 751 mmHg 93%
    07:00 +19°C° 0.3 mm 3 m/S 752 mmHg 93%
    08:00 +20°C° 0.3 mm 3 m/S 752 mmHg 89%
    09:00 +21°C° 0.3 mm 3 m/S 752 mmHg 86%
    10:00 +22°C° 0.3 mm 3 m/S 752 mmHg 82%
    11:00 +22°C° 0.2 mm 3 m/S 751 mmHg 77%
    12:00 +23°C° 0.2 mm 4 m/S 751 mmHg 73%
    13:00 +25°C° 0.2 mm 4 m/S 750 mmHg 68%
    14:00 +25°C° 0.1 mm 4 m/S 750 mmHg 67%
    15:00 +25°C° 0.1 mm 4 m/S 750 mmHg 66%
    16:00 +25°C° 0.1 mm 3 m/S 749 mmHg 65%
    17:00 +22°C° 0 mm 3 m/S 749 mmHg 72%
    18:00 +20°C° 0 mm 2 m/S 750 mmHg 80%
    19:00 +20°C° 0 mm 1 m/S 750 mmHg 87%
    20:00 +19°C° 0 mm 1 m/S 750 mmHg 89%
    21:00 +19°C° 0 mm 1 m/S 751 mmHg 90%
    22:00 +19°C° 0 mm 1 m/S 751 mmHg 92%
    23:00 +18°C° 0 mm 1 m/S 751 mmHg 92%

    Morgen, 26 August, Montag

    Zeit Temperatur Niederschläge Wind Luftdruck Luftfeuchtigkeit
    00:00 +18°C° 0 mm 1 m/S 751 mmHg 93%
    01:00 +18°C° 0 mm 1 m/S 751 mmHg 94%
    02:00 +17°C° 0.1 mm 2 m/S 751 mmHg 94%
    03:00 +17°C° 0.1 mm 2 m/S 751 mmHg 94%
    04:00 +17°C° 0.1 mm 2 m/S 750 mmHg 95%
    05:00 +17°C° 0.1 mm 2 m/S 751 mmHg 94%
    06:00 +17°C° 0.1 mm 2 m/S 751 mmHg 94%
    07:00 +17°C° 0.1 mm 2 m/S 752 mmHg 94%
    08:00 +19°C° 0.1 mm 2 m/S 752 mmHg 85%
    09:00 +21°C° 0.1 mm 3 m/S 752 mmHg 77%
    10:00 +24°C° 0.1 mm 3 m/S 752 mmHg 68%
    11:00 +25°C° 0 mm 3 m/S 751 mmHg 65%
    12:00 +25°C° 0 mm 3 m/S 750 mmHg 62%
    13:00 +26°C° 0 mm 3 m/S 750 mmHg 59%
    14:00 +25°C° 0 mm 3 m/S 749 mmHg 60%
    15:00 +25°C° 0 mm 3 m/S 749 mmHg 60%
    16:00 +25°C° 0 mm 3 m/S 749 mmHg 60%
    17:00 +23°C° 0 mm 2 m/S 749 mmHg 69%
    18:00 +20°C° 0 mm 2 m/S 750 mmHg 78%
    19:00 +18°C° 0 mm 2 m/S 750 mmHg 87%
    20:00 +18°C° 0 mm 2 m/S 751 mmHg 89%
    21:00 +18°C° 0 mm 2 m/S 751 mmHg 90%
    22:00 +17°C° 0 mm 2 m/S 751 mmHg 92%
    23:00 +17°C° 0 mm 2 m/S 751 mmHg 92%

    übermorgen, 27 August, Dienstag

    Zeit Temperatur Niederschläge Wind Luftdruck Luftfeuchtigkeit
    00:00 +17°C° 0 mm 2 m/S 751 mmHg 93%
    01:00 +17°C° 0 mm 2 m/S 751 mmHg 93%
    02:00 +17°C° 0 mm 2 m/S 751 mmHg 94%
    03:00 +17°C° 0 mm 2 m/S 751 mmHg 94%
    04:00 +17°C° 0 mm 2 m/S 750 mmHg 94%
    05:00 +17°C° 0 mm 2 m/S 751 mmHg 94%
    06:00 +17°C° 0 mm 2 m/S 751 mmHg 94%
    07:00 +17°C° 0 mm 2 m/S 752 mmHg 94%
    08:00 +19°C° 0 mm 2 m/S 752 mmHg 82%
    09:00 +21°C° 0 mm 3 m/S 752 mmHg 71%
    10:00 +25°C° 0 mm 3 m/S 752 mmHg 59%
    11:00 +25°C° 0 mm 3 m/S 752 mmHg 57%
    12:00 +26°C° 0 mm 4 m/S 751 mmHg 55%
    13:00 +26°C° 0 mm 4 m/S 750 mmHg 52%
    14:00 +26°C° 0 mm 4 m/S 750 mmHg 53%
    15:00 +25°C° 0 mm 4 m/S 750 mmHg 55%
    16:00 +25°C° 0 mm 4 m/S 749 mmHg 56%
    17:00 +22°C° 0 mm 3 m/S 750 mmHg 67%
    18:00 +20°C° 0 mm 2 m/S 751 mmHg 77%
    19:00 +18°C° 0 mm 2 m/S 751 mmHg 88%
    20:00 +18°C° 0 mm 2 m/S 751 mmHg 90%
    21:00 +17°C° 0 mm 2 m/S 752 mmHg 91%
    22:00 +17°C° 0 mm 2 m/S 752 mmHg 93%
    23:00 +17°C° 0 mm 2 m/S 752 mmHg 93%

    28 August, Mittwoch

    Zeit Temperatur Niederschläge Wind Luftdruck Luftfeuchtigkeit
    00:00 +16°C° 0 mm 2 m/S 752 mmHg 94%
    01:00 +16°C° 0 mm 2 m/S 751 mmHg 94%
    02:00 +16°C° 0 mm 2 m/S 751 mmHg 94%
    03:00 +16°C° 0 mm 2 m/S 751 mmHg 93%
    04:00 +16°C° 0 mm 2 m/S 751 mmHg 93%
    05:00 +17°C° 0 mm 2 m/S 751 mmHg 92%
    06:00 +17°C° 0 mm 2 m/S 752 mmHg 91%
    07:00 +17°C° 0 mm 2 m/S 752 mmHg 90%
    08:00 +19°C° 0 mm 2 m/S 752 mmHg 81%
    09:00 +21°C° 0 mm 2 m/S 752 mmHg 72%
    10:00 +25°C° 0 mm 2 m/S 753 mmHg 62%
    11:00 +25°C° 0 mm 3 m/S 752 mmHg 59%
    12:00 +26°C° 0 mm 3 m/S 751 mmHg 56%
    13:00 +27°C° 0 mm 3 m/S 750 mmHg 52%
    14:00 +26°C° 0 mm 3 m/S 750 mmHg 54%
    15:00 +25°C° 0 mm 3 m/S 750 mmHg 56%
    16:00 +25°C° 0 mm 3 m/S 749 mmHg 58%
    17:00 +22°C° 0 mm 3 m/S 750 mmHg 68%
    18:00 +20°C° 0 mm 3 m/S 750 mmHg 78%
    19:00 +18°C° 0 mm 2 m/S 751 mmHg 88%
    20:00 +18°C° 0 mm 2 m/S 751 mmHg 89%
    21:00 +18°C° 0 mm 2 m/S 751 mmHg 91%
    22:00 +19°C° 0 mm 1 m/S 752 mmHg 92%
    23:00 +19°C° 0.1 mm 1 m/S 752 mmHg 91%

    29 August, Donnerstag

    Zeit Temperatur Niederschläge Wind Luftdruck Luftfeuchtigkeit
    00:00 +20°C° 0.1 mm 1 m/S 751 mmHg 90%
    01:00 +20°C° 0.1 mm 1 m/S 751 mmHg 89%
    02:00 +20°C° 0.1 mm 1 m/S 751 mmHg 91%
    03:00 +18°C° 0.1 mm 2 m/S 750 mmHg 92%
    04:00 +18°C° 0.1 mm 2 m/S 750 mmHg 93%
    05:00 +18°C° 0.1 mm 2 m/S 751 mmHg 93%
    06:00 +18°C° 0.1 mm 2 m/S 751 mmHg 94%
    07:00 +18°C° 0.1 mm 2 m/S 752 mmHg 94%
    08:00 +20°C° 0 mm 2 m/S 752 mmHg 85%
    09:00 +22°C° 0 mm 3 m/S 752 mmHg 76%
    10:00 +25°C° 0 mm 3 m/S 752 mmHg 67%
    11:00 +25°C° 0 mm 3 m/S 751 mmHg 64%
    12:00 +26°C° 0 mm 4 m/S 751 mmHg 60%
    13:00 +26°C° 0 mm 4 m/S 750 mmHg 57%
    14:00 +26°C° 0 mm 4 m/S 750 mmHg 59%
    15:00 +25°C° 0 mm 4 m/S 749 mmHg 61%
    16:00 +25°C° 0 mm 4 m/S 749 mmHg 63%
    17:00 +22°C° 0 mm 3 m/S 749 mmHg 72%
    18:00 +20°C° 0 mm 2 m/S 750 mmHg 81%
    19:00 +19°C° 0 mm 2 m/S 750 mmHg 89%
    20:00 +19°C° 0 mm 1 m/S 751 mmHg 91%
    21:00 +19°C° 0 mm 1 m/S 751 mmHg 92%
    22:00 +19°C° 0 mm 1 m/S 751 mmHg 93%
    23:00 +18°C° 0 mm 1 m/S 751 mmHg 94%

    30 August, Freitag

    Zeit Temperatur Niederschläge Wind Luftdruck Luftfeuchtigkeit
    00:00 +18°C° 0 mm 1 m/S 751 mmHg 95%
    01:00 +18°C° 0 mm 1 m/S 751 mmHg 95%
    02:00 +18°C° 0 mm 1 m/S 750 mmHg 95%
    03:00 +18°C° 0 mm 1 m/S 750 mmHg 95%
    04:00 +17°C° 0 mm 2 m/S 750 mmHg 94%
    05:00 +17°C° 0 mm 2 m/S 750 mmHg 94%
    06:00 +17°C° 0 mm 2 m/S 751 mmHg 93%
    07:00 +17°C° 0 mm 2 m/S 751 mmHg 93%
    08:00 +20°C° 0 mm 2 m/S 751 mmHg 80%
    09:00 +23°C° 0 mm 1 m/S 752 mmHg 67%
    10:00 +26°C° 0 mm 1 m/S 752 mmHg 54%
    11:00 +26°C° 0 mm 2 m/S 751 mmHg 52%
    12:00 +27°C° 0 mm 2 m/S 750 mmHg 50%
    13:00 +27°C° 0 mm 3 m/S 750 mmHg 49%
    14:00 +26°C° 0 mm 3 m/S 749 mmHg 50%
    15:00 +26°C° 0 mm 3 m/S 749 mmHg 52%
    16:00 +25°C° 0 mm 2 m/S 749 mmHg 54%
    17:00 +23°C° 0 mm 2 m/S 749 mmHg 64%
    18:00 +21°C° 0 mm 1 m/S 749 mmHg 73%
    19:00 +20°C° 0 mm 1 m/S 750 mmHg 82%
    20:00 +19°C° 0 mm 1 m/S 750 mmHg 85%
    21:00 +19°C° 0 mm 1 m/S 751 mmHg 87%
    22:00 +18°C° 0 mm 1 m/S 751 mmHg 90%
    23:00 +18°C° 0 mm 1 m/S 751 mmHg 91%
    Mehr zeigen